map of LHR home
Great Circle Mapper logo
LHR - Airport
Location
City:  London, Middlesex, England, United Kingdom
Name:Heathrow
ICAO / IATA:EGLL / LHR

Details
Type:Airport (Aerodrome, Airfield)
Use:Public/Civil, International (customs port of entry)
Latitude:5128'39"N (51.477500)
Longitude:027'41"W (-0.461388)
Datum:WGS 1984
Elevation:83 ft (25 m)
Runways:2
Longest:12799 × 164 ft (3901 × 50 m), paved

Time
Time Zone:UTC+0 (DST+1)
Local Time:

Weather
METAR:EGLL 241550Z 04005KT 350V080 9999 FEW045 17/06 Q1017 NOSIG
TAF:EGLL 241058Z 2412/2518 04005KT 9999 FEW040 PROB30
TEMPO 2414/2421 7000 SHRA
BECMG 2502/2505 BKN008
TEMPO 2505/2510 6000 SHRA SCT008
BECMG 2510/2512 SCT020
TEMPO 2512/2518 6000 SHRA PROB30
TEMPO 2513/2518 4000 +SHRA BKN014

Related Locations
Nearby:
Farthest:CHT: 11869 mi / 19102 km
Waitangi [Tuuta], Chatham Islands, NZ

Find:

   beyond  
but within

Other Information
Maps:
NOTAMs:
Links:
Sources:

  
flag of United Kingdom
flag of England
  

Sectional Chart

Flight Planning
at skyvector.com

Satellite Image

Google Maps Satellite View

 

Copyright © 2004-2014 Karl L. Swartz. All rights reserved.
The Great Circle Mapper name and logo are trademarks of the Great Circle Mapper.
All other trademarks mentioned herein belong to their respective owners.
Please see credits for attibutions and further copyright information.

  Follow gcmap on Facebook Follow gcmap on Twitter

hCard Microformat

Geo Microformat